Weather Service Report


172 
ASUS41 KBOX 210410
RWRBOX

REGIONAL WEATHER ROUNDUP
NATIONAL WEATHER SERVICE TAUNTON MA
1200 AM EDT MON APR 21 2014

NOTE:  "FAIR" INDICATES FEW OR NO CLOUDS BELOW 12,000 FEET WITH NO 
SIGNIFICANT WEATHER AND/OR OBSTRUCTIONS TO VISIBILITY.  THE FOLLOWING 
OBSERVATION LOCATIONS DO NOT REPORT PRESENT WEATHER...PROVINCETOWN...
SMITHFIELD...BLOCK ISLAND...KEENE...AND OXFORD.

MAZALL-210500-
EASTERN MASSACHUSETTS
  
CITY           SKY/WX    TMP DP  RH WIND       PRES   REMARKS
BOSTON         PTCLDY    39  32  76 S6        30.36F                  
BEVERLY        CLEAR     38  32  79 S6        30.34F                  
LAWRENCE       CLEAR     40  30  67 S3        30.35F                  
BEDFORD        CLEAR     39  30  70 S5        30.33F                  
BLUE HILL        N/A     38  33  82 S12       30.32F WCI  30          
NORWOOD        FAIR      38  35  89 S3        30.35F                  
MARSHFIELD       N/A    N/A N/A N/A MISG        N/A                   
PLYMOUTH       CLEAR     32  27  81 CALM      30.35F                  
TAUNTON        CLEAR     33  30  88 CALM      30.35F                  
NEW BEDFORD    CLEAR     36  32  85 CALM      30.34F                  
$$

MAZALL-210500-
CAPE COD AND THE ISLANDS
  
CITY           SKY/WX    TMP DP  RH WIND       PRES   REMARKS
FALMOUTH       CLEAR     36  34  93 SE3       30.35F                  
HYANNIS        CLEAR     31  28  89 CALM      30.34F                  
CHATHAM        CLEAR     36  33  89 SE3       30.36F                  
PROVINCETOWN   CLEAR     39  36  87 MISG      30.36F                  
NANTUCKET      CLEAR     35  31  85 E8        30.35F WCI  29          
MARTHAS VNYRD  CLEAR     31  26  82 E3        30.35F                  
$$
 
MAZALL-210500-
CENTRAL AND WESTERN MASSACHUSETTS
  
CITY           SKY/WX    TMP DP  RH WIND       PRES   REMARKS
WORCESTER      CLEAR     38  26  62 SW8       30.32F                  
FITCHBURG      CLEAR     41  28  60 CALM      30.33F                  
ORANGE         CLEAR     43  22  43 S7        30.33F                  
SPRINGFIELD    CLEAR     40  25  56 S6        30.33F                  
WESTFIELD      CLEAR     42  25  50 SE5       30.33F                  
NORTH ADAMS    CLEAR     41  28  60 CALM      30.29F                  
PITTSFIELD     CLEAR     44  22  41 S7        30.28F                  
$$
 
RIZALL-210500-
RHODE ISLAND
  
CITY           SKY/WX    TMP DP  RH WIND       PRES   REMARKS
PROVIDENCE     CLEAR     40  31  70 W3        30.36F                  
NEWPORT        CLEAR     37  33  85 CALM      30.34F                  
BLOCK ISLAND   CLEAR     39  34  81 E5        30.34F                  
SMITHFIELD     CLEAR     36  27  69 SW3       30.35F                  
WESTERLY       CLEAR     34  31  88 CALM      30.36F                  
$$
 
CTZALL-210500-
CONNECTICUT
  
CITY           SKY/WX    TMP DP  RH WIND       PRES   REMARKS
BRADLEY INTL   PTCLDY    41  26  55 S6        30.33F                  
HARTFORD       CLEAR     41  29  62 CALM      30.35F                  
BRIDGEPORT     CLEAR     43  30  60 E3        30.34F                  
DANBURY        CLEAR     36  28  73 CALM      30.35F                  
GROTON         CLEAR     35  32  88 CALM      30.35F                  
NEW HAVEN      CLEAR     38  32  79 CALM      30.35F                  
CHESTER        FAIR      37  32  81 CALM      30.34F                  
MERIDEN        CLEAR     36  30  79 CALM      30.35F                  
WILLIMANTIC    CLEAR     36  28  73 CALM      30.35F                  
OXFORD         CLEAR     37  27  65 CALM      30.35F                  
$$

MEZ002-015-021-024-NHZ003-005-008-011-012-014-VTZ005-008-210500-
NORTHERN NEW ENGLAND
  
CITY           SKY/WX    TMP DP  RH WIND       PRES   REMARKS
PORTLAND ME    CLEAR     37  31  78 CALM      30.34F                  
BANGOR ME      CLOUDY    38  25  59 S9        30.31F WCI  31          
CONCORD NH     CLEAR     38  20  48 SE3       30.32F                  
MANCHESTER NH  CLEAR     41  27  57 S5        30.31F                  
NASHUA NH      CLEAR     38  27  65 CALM      30.34F                  
PORTSMOUTH NH  CLEAR     36  31  81 S3        30.33F                  
JAFFREY NH     CLEAR     41  27  57 S7        30.31F                  
KEENE NH       CLEAR     39  25  56 SW5       30.32S                  
BURLINGTON VT  MOCLDY    54  21  27 S8        30.19F                  
MT. WASHINGTON MOCLDY    30  18  59 W31         N/A  WCI  15          
$$

NYZ052-076-210500-
EASTERN NEW YORK
  
CITY           SKY/WX    TMP DP  RH WIND       PRES   REMARKS
ALBANY         PTCLDY    50  22  33 S14       30.27F                  
NEW YORK CITY  PTCLDY    45  28  51 NE3       30.34F                  
$$
 
ANZALL-210500-
MARINE OBSERVATIONS
  
STATION/POSITION TIME  TEMP    WIND        PRES    VSBY  WAVE
                       AIR SEA DIR/SP/G                  HT/PER
                 (UTC) (F)     (DEG/KT/KT) (MB)    (MI)  (FT/S)
BOSTON BUOY      0350   41 40  200/ 10/ 12 1028.1F         2/ 8
BUZZARDS BAY     0300          120/  8/  9 1029.3F
NANTUCKET SOUND  0350   41 44  110/  8/ 10 1027.8F         1
MASS BAY-STELLWA 0304   41 41  180/ 10/ 12 1027.3F  1 7/8  3/ 8
ISLE OF SHOALS   0300   41     210/ 15/ 16 1027.3F
S OF BLOCK IS    0325      42                N/A           3/ 8
$$

......................KEY.........................
  SKY/WX - SKY CONDITION/PRESENT WEATHER
  TMP    - TEMPERATURE IN FAHRENHEIT
  DWPT   - DEWPOINT IN FAHRENHEIT
  RH     - RELATIVE HUMIDITY IN PERCENT
  WIND   - DIRECTION AND SPEED IN MPH
  PRES   - MEAN SEA LEVEL PRESSURE IN INCHES OF HG
  WCI    - WIND CHILL INDEX
  VSB    - VISIBILITY IN MILES
  HX     - HEAT INDEX
  TC     - TEMPERATURE IN CELSIUS
  VRB    - VARIABLE WIND DIRECTION
  N/A    - NOT AVAILABLE

Return to Home page


Western Regional Climate Center, wrcc@dri.edu